CZ-6A DEB, 60753

Orbit data source: Space-Track

CZ-6A DEB, 60753 is space debris in LEO originally from a launch on Tue, 06 Aug 2024 UTC launched from the Taiyaun Space Center, China (TSC). Debris objects in space refer to the collection of defunct objects orbiting the Earth. Examples of debris include non-operational satellites, rocket bodies, and fragments generated from explosions, collisions, or faulty payload assembly.

Loading next visibility...
Identifier
60753, 2024-140EC
Orbit
LEO
Country
Flag of CNCN / PRC
Related business
Manufacturer
SAST
Mission
Spacecraft
Bus & Motor
Unknown
Mass
Unknown
Launch date (UTC)
2024-08-06 (2 years ago)
Launch vehicle
Unknown
Launch site
Taiyaun Space Center, China (TSC)
Object type
Payload
Rocket body
Debris
Shape & HBR
Unknown shape, 0.1 m
Radar Cross Section
Medium (>0.1 m² and <1 m²)

Expand to show TLE details & history
Last TLE update: 16 hours ago

TLE from 16 hours ago
0 CZ-6A DEB
1 60753U 24140EC  26171.29778053  .00001594  00000-0  85557-3 0  9992
2 60753  89.0632 280.7366 0109988 192.1653 167.6873 14.09491035 94147
Epoch: 2026-06-20T07:08Z
TLE epoch observation values (Epoch: 2026-06-20T07:08:48.237Z)
Latitude
-0.00004°
Longitude
-94.97881°
Altitude
942 km
Speed
7.341 km/s
True Right ascension
18h 42m 56s
True Declination
0° 00' 00"
Sunlit
Object was in full shadow at epoch
Visualization orbit readout
Latitude
Unknown
Longitude
Unknown
Altitude
Unknown
Speed
Unknown
Apparent Right ascension
Unknown
Apparent Declination
Unknown
Sunlit
N/A
Visualization observer readout
Local Sidereal Time
10:19:36
Azimuth
Unknown
Elevation
Unknown
Doppler factor
Unknown
Orbital elements
Apogee altitude
937.669 km
Perigee altitude
778.49 km
Semi-major axis
7,236.216 km
Eccentricity
0.011
Inclination
89.0632°
RAAN
280.7366°
Arg. of periapsis
192.1653°
True anomaly
167.9525°
Mean anomaly
167.6873°
Eccentric anomaly
167.82026°
Mean motion
3.52595 °/min
Orbital period
102.1 mins
BSTAR
0.00085557
Loading maneuver chart data...
Computing Atmospheric mass density...
Loading historical data...
Loading historical data...
Loading historical data...
Loading historical data...
Loading historical data...
Loading historical data...
Loading historical data...

Documentation

Showing up to 5 results
|